Palm Springs, CA

6:35 PM PDT on April 23, 2018 (GMT -0700)
Palm Springs International

Weather History for KPSP - December, 2011

Change the Weather History Date:

Tuesday, December 27, 2011

  Actual Average Record
Temperature  
Mean Temperature 54 °F 55 °F  
Max Temperature 69 °F 67 °F 85 °F (1980)
Min Temperature 39 °F 44 °F 28 °F (1987)
Degree Days  
Heating Degree Days 11 10  
Month to date heating degree days 290 253  
Since 1 July heating degree days 404 349  
Cooling Degree Days 0 0  
Month to date cooling degree days 0 0  
Year to date cooling degree days 4150 4137  
Growing Degree Days 5 (Base 50)    
Moisture  
Dew Point 21 °F    
Average Humidity 32    
Maximum Humidity 51    
Minimum Humidity 12    
Precipitation  
Precipitation 0.00 in 0.04 in 1.24 in (1927)
Month to date precipitation 0.14 0.69  
Year to date precipitation 2.95 5.55  
Since 1 July precipitation 1.48  
Snow  
Snow 0.00 in - - ()
Month to date snowfall 0.0  
Year to date snowfall 0.0  
Snow Depth 0.00 in    
Sea Level Pressure  
Sea Level Pressure 30.22 in    
Wind  
Wind Speed 4 mph (NNW)    
Max Wind Speed 10 mph    
Max Gust Speed -    
Visibility 10 miles    
Events      
T = Trace of Precipitation, MM = Missing Value Source: NWS Daily Summary

Daily Weather History Graph

Daily Weather History Graph

Search for Another Location

Airport or City:

Astronomy

Dec. 27, 2011 Rise Set
Actual Time 6:49 AM PST 4:44 PM PST
Civil Twilight 6:21 AM PST 5:12 PM PST
Nautical Twilight 5:50 AM PST 5:43 PM PST
Astronomical Twilight 5:20 AM PST 6:13 PM PST
Moon 8:55 AM PST (12/27) 8:13 PM PST (12/27)
Length of Visible Light 10h 50m
Length of Day
9h 55m
Waxing Crescent, 11% of the Moon is Illuminated
Dec 27
Waxing Crescent
Dec 31
First Quarter
Jan 8
Full
Jan 16
Last Quarter
Jan 22
New

Hourly Weather History & Observations

Time (PST) Temp. Windchill Dew Point Humidity Pressure Visibility Wind Dir Wind Speed Gust Speed Precip Events Conditions
12:53 AM 44.1 °F 40.1 °F 19.9 °F 38% 30.25 in 10.0 mi NNW 6.9 mph - N/A   Clear
1:53 AM 46.0 °F 43.9 °F 19.9 °F 35% 30.22 in 10.0 mi NNW 4.6 mph - N/A   Clear
2:53 AM 44.1 °F 39.5 °F 19.0 °F 37% 30.22 in 10.0 mi NW 8.1 mph - N/A   Clear
3:53 AM 44.6 °F 40.7 °F 19.4 °F 37% 30.20 in 10.0 mi NNW 6.9 mph - N/A   Clear
4:53 AM 41.0 °F - 25.0 °F 53% 30.20 in 10.0 mi Calm Calm - N/A   Clear
5:53 AM 42.1 °F 38.4 °F 21.0 °F 43% 30.20 in 10.0 mi NNW 5.8 mph - N/A   Clear
6:53 AM 42.1 °F 38.4 °F 21.0 °F 43% 30.22 in 10.0 mi NNW 5.8 mph - N/A   Clear
7:53 AM 45.0 °F - 23.0 °F 42% 30.25 in 10.0 mi Calm Calm - N/A   Clear
8:53 AM 53.1 °F - 25.0 °F 34% 30.25 in 10.0 mi Calm Calm - N/A   Clear
9:53 AM 60.1 °F - 18.0 °F 20% 30.25 in 10.0 mi Calm Calm - N/A   Clear
10:53 AM 62.1 °F - 19.0 °F 19% 30.23 in 10.0 mi South 3.5 mph - N/A   Clear
12:53 PM 68.0 °F - 18.0 °F 15% 30.18 in 10.0 mi SSE 4.6 mph - N/A   Clear
1:53 PM 69.1 °F - 16.0 °F 13% 30.17 in 10.0 mi East 4.6 mph - N/A   Clear
2:53 PM 69.1 °F - 18.0 °F 14% 30.17 in 10.0 mi ESE 4.6 mph - N/A   Clear
3:53 PM 68.0 °F - 12.9 °F 12% 30.18 in 10.0 mi Calm Calm - N/A   Clear
4:53 PM 62.6 °F - 24.8 °F 24% 30.18 in 10.0 mi Calm Calm - N/A   Clear
5:53 PM 57.9 °F - 26.1 °F 30% 30.22 in 10.0 mi Calm Calm - N/A   Clear
6:53 PM 55.0 °F - 21.0 °F 27% 30.23 in 10.0 mi WNW 3.5 mph - N/A   Clear
7:53 PM 52.0 °F - 19.9 °F 28% 30.24 in 10.0 mi NNW 5.8 mph - N/A   Clear
8:53 PM 51.1 °F - 21.0 °F 31% 30.25 in 10.0 mi WNW 3.5 mph - N/A   Clear
9:53 PM 48.9 °F - 21.9 °F 35% 30.26 in 10.0 mi Variable 3.5 mph - N/A   Clear
10:53 PM 48.0 °F - 21.0 °F 34% 30.25 in 10.0 mi NNW 6.9 mph - N/A   Clear
11:53 PM 46.4 °F 42.9 °F 21.2 °F 37% 30.23 in 10.0 mi NNW 6.9 mph - N/A   Clear